Volver al catálogo

STARLINK-5602

ActivoComunicacionesVLEO
NORAD 55743·PAYLOAD·🇺🇸 United States

Lanzado Mar 3, 2023 desde Vandenberg Space Force Base

Loading…

Próximos Pases (próximas 24 horas)

TLE

ActualizadoSource: CelesTrak SupGP

Época: Sep 15, 2026, 02:42 UTC

1 55743C 23028C   26258.11298611  .00019950  00000+0  16719-2 0  2588
2 55743  69.9994 127.0196 0002516 266.0424 316.2080 14.98320159    19

Sigue STARLINK-5602 en tiempo real con AllMySat

Download on the App Store